Location: La Sioule Rivi�re
(46.3664°N, 3.3197°E)
Time: 12:04:25
(UTC+00:00)

Cosmos 1812 Rocket - Pass Details

Date: 29 October 2020
Orbit: 605 x 633 km, 82.5° (Epoch: 23 November)

Event Time Altitude Azimuth Distance (km) Brightness Sun altitude
Rises 18:57:58 0° 201° (SSW) 2,889 7.2 -25.0°
Reaches altitude 10° 19:00:15 10° 207° (SSW) 1,983 6.4 -25.4°
Maximum altitude 19:04:31 50° 283° (WNW) 794 4.4 -26.1°
Drops below altitude 10° 19:08:47 10° 359° (N) 1,982 6.2 -26.8°
Sets 19:11:04 0° 5° (N) 2,887 7.0 -27.2°
